STARLINK-2062 (47670 NORAD) Tracking and Keplerian Element Data

This shows tracking and keplerian element data for the satellite.

Feedback or suggestion? Click here.




ElementValue
Catalog47670
NameSTARLINK-2062
Epoch Orbit177
Epoch Day101.91668981
Epoch Year2021
RAAN189.7434
Inclination53.0481
Eccentricity0.0001398
Argument of Perigee36.8496
Mean Anonmoly358.6503
Mean Motion15.58451893
Decay Rate-0.00491406
L11 47670U 21012BC 21101.91668981 -.00491406 00000-0 -67204-2 0 9990
L22 47670 53.0481 189.7434 0001398 36.8496 358.6503 15.58451893 1774

Live tracking and technical data element details for STARLINK-2062 (NORAD 47670). STARLINK-2062 can be tracked NOW for your location showing map with azimuth and elevation plus other details from your city location.

Track the satellite on the map from your city or location and see movement details for azimuth, elevation, latitude, longitude, range, height, and movement on the map or in text.







IsCatalogInMostPopularTable: catalog: 47670, numindb: 20
Update: records affected: 1



GetName: 47670 STARLINK-2062

Hit Count: updated at: Tue, 13 Apr 2021 03:55:38 GMT